[[{"header":{"parameterUnit":"m.s-1","parameterCategory":1,"la1":30.2991,"la2":30.254,"lo1":-89.0895,"lo2":-89.0444,"dy":0.0017,"dx":0.0017,"nx":28,"ny":28,"refTime":"2025-01-29T03:00:00:Z","depth":0,"parameterNumber":2,"parameterNumberName":"U-component_of_WINDS"},"data":[0,0,0,0,0,0,0,0,0,0,0,0,0,0,0,0,0,0,0,0,0,0,0,0,0,0,0,0,0,0,0,0,0,0,0,0,0,0,0,0,0,0,0,0,0,0,0,0,0,0,0,0,0,0,0,0,0,0,-3.8348,-3.8349,0,-3.842,-3.8421,-3.8421,-3.8407,-3.8406,-3.8405,-3.8403,-3.8478,-3.8481,-3.8484,0,0,0,0,0,0,0,0,0,0,0,0,0,-3.8201,-3.8204,-3.8348,-3.8349,-3.835,-3.842,-3.8421,-3.8422,-3.8408,-3.8406,-3.8404,-3.8403,-3.8477,-3.8481,-3.8484,0,0,0,0,0,0,0,0,0,0,0,0,0,-3.8268,-3.8205,-3.8348,-3.8351,-3.8352,-3.8419,-3.8421,-3.8422,-3.8408,-3.8406,-3.8404,-3.8402,-3.8476,-3.848,-3.8485,-3.8554,0,0,-3.85,-3.8502,0,0,0,0,0,0,0,0,-3.8264,-3.8274,-3.835,-3.8351,-3.8352,-3.8403,-3.8396,-3.8466,-3.8408,-3.8387,-3.8403,-3.8401,-3.8455,-3.8461,-3.8479,-3.8557,-3.856,-3.85,-3.8503,-3.8505,-3.8506,0,0,0,0,0,0,0,-3.826,-3.827,-3.8376,-3.8351,-3.8353,-3.835,-3.8357,-3.8409,-3.8431,-3.8389,-3.8388,-3.8396,-3.8455,-3.8474,-3.848,-3.8561,-3.85,-3.8504,-3.8507,-3.8509,-3.87,-3.8702,0,0,0,0,0,0,-3.8254,-3.8267,-3.8374,-3.8379,-3.8303,-3.8354,-3.8362,-3.8388,-3.843,-3.8435,-3.8398,-3.8395,-3.8467,-3.8475,-3.8483,-3.8565,-3.8505,-3.851,-3.8512,-3.8698,-3.87,-3.8703,0,0,0,0,0,0,-3.8251,-3.8263,-3.8371,-3.8322,-3.8336,-3.8359,-3.8388,-3.8391,-3.841,-3.8437,-3.8441,-3.8413,-3.8466,-3.8476,-3.8536,-3.8568,-3.8512,-3.8516,-3.8695,-3.8699,-3.8702,-3.8731,0,0,0,0,0,0,-3.8246,-3.8262,-3.8288,-3.8323,-3.8339,-3.8423,-3.839,-3.8394,-3.8418,-3.8416,-3.8453,-3.8457,-3.8465,-3.8529,-3.8541,-3.8573,-3.852,-3.8692,-3.8697,-3.8701,-3.8727,-3.8735,-3.8741,0,0,0,0,0,-3.8241,-3.8294,-3.8289,-3.8303,-3.8371,-3.8425,-3.8433,-3.8441,-3.8421,-3.8447,-3.8465,-3.8456,-3.8563,-3.8535,-3.8548,-3.8583,-3.869,-3.8695,-3.87,-3.8724,-3.8733,-3.8741,0,0,0,0,0,0,-3.8262,-3.8298,-3.8294,-3.8359,-3.8389,-3.8422,-3.8455,-3.8451,-3.8487,-3.8483,-3.8491,-3.85,-3.8561,-3.8578,-3.8547,-3.8652,-3.8624,-3.8632,-3.8637,-3.8646,-3.8653,-3.8647,-3.8524,0,0,0,0,0,-3.8274,-3.8314,-3.8344,-3.8399,-3.8414,-3.8432,-3.8456,-3.8459,-3.849,-3.8503,-3.8525,-3.8556,-3.8596,-3.8623,-3.8662,-3.8731,-3.8738,-3.8761,-3.8768,-3.8774,-3.878,-3.8817,-3.8827,-3.8719,-3.8719,-3.8719,0,0,-3.83,-3.8325,-3.8349,-3.8404,-3.8427,-3.8468,-3.8443,-3.8488,-3.8518,-3.851,-3.8567,-3.8585,-3.862,-3.8684,-3.8714,-3.8701,-3.8812,-3.878,-3.8784,-3.8787,-3.8823,-3.8833,-3.8842,-3.8722,-3.8722,-3.8721,0,0,-3.8367,-3.839,-3.8438,-3.8462,-3.8498,-3.851,-3.8521,-3.8556,-3.8567,-3.8625,-3.8619,-3.8656,-3.8726,-3.8751,-3.8773,-3.8852,-3.8845,-3.8864,-3.89,-3.8937,-3.8945,-3.8953,-3.8979,-3.8989,-3.8871,-3.8871,-3.8871,0,-3.8394,-3.8456,-3.8463,-3.8509,-3.8533,-3.8527,-3.8576,-3.8599,-3.8646,-3.8663,-3.8648,-3.8735,-3.8759,-3.8829,-3.8848,-3.8866,-3.888,-3.8859,-3.8943,-3.8951,-3.8958,-3.8984,-3.8994,-3.8873,-3.8873,-3.8872,-3.8872,0,-3.8487,-3.853,-3.8564,-3.8609,-3.8637,-3.8684,-3.87,-3.8728,-3.8729,-3.8743,-3.8802,-3.8831,-3.8875,-3.8892,-3.8895,-3.8963,-3.8954,-3.8941,-3.8913,-3.897,-3.8994,-3.9004,-3.8876,-3.8875,-3.8874,-3.8874,0,0,-3.8567,-3.8616,-3.8629,-3.8649,-3.8688,-3.8722,-3.8769,-3.8812,-3.8836,-3.8869,-3.8908,-3.8968,-3.8957,-3.8982,-3.8987,-3.9019,-3.9078,-3.9003,-3.9004,-3.9014,-3.9155,-3.9162,-3.9174,-3.9075,-3.9077,-3.9079,-3.9151,0,-3.8637,-3.8718,-3.8728,-3.8801,-3.884,-3.8837,-3.8878,-3.8907,-3.8922,-3.8958,-3.8975,-3.9016,-3.8999,-3.9014,-3.9046,-3.9064,-3.9106,-3.906,-3.9111,-3.9113,-3.91,-3.9186,-3.9195,-3.9262,-3.9161,-3.9162,-3.9164,0,-3.8728,-3.8763,-3.884,-3.8874,-3.8891,-3.8928,-3.8968,-3.9003,-3.9037,-3.9045,-3.9074,-3.9075,-3.9124,-3.9096,-3.9164,-3.9132,-3.9154,-3.9167,-3.9169,-3.9173,-3.914,-3.919,-3.9283,-3.9293,-3.9179,-3.9178,-3.9177,0,-3.8777,-3.8844,-3.8898,-3.8916,-3.8958,-3.8983,-3.9002,-3.9034,-3.9059,-3.9095,-3.9111,-3.9153,-3.9175,-3.9208,-3.922,-3.9199,-3.9287,-3.926,-3.9295,-3.9295,-3.9312,-3.931,-3.9408,-3.933,-3.933,-3.933,-3.9329,0,-3.8852,-3.8899,-3.8921,-3.8954,-3.9007,-3.9018,-3.907,-3.9088,-3.9116,-3.9153,-3.9154,-3.9188,-3.9204,-3.9242,-3.9253,-3.9307,-3.9317,-3.9325,-3.9327,-3.9324,-3.9323,-3.9337,-3.9332,-3.9332,-3.9332,-3.9331,-3.9331,0,-3.8914,-3.8931,-3.899,-3.9025,-3.9035,-3.9072,-3.9102,-3.9135,-3.915,-3.9197,-3.9209,-3.9233,-3.9277,-3.9294,-3.9348,-3.9355,-3.9417,-3.9416,-3.9405,-3.9405,-3.9439,-3.9435,-3.9547,-3.9562,-3.9476,-3.9477,-3.9478,0,-3.896,-3.8996,-3.9035,-3.906,-3.9079,-3.9119,-3.9145,-3.9158,-3.9185,-3.9226,-3.9254,-3.9298,-3.9334,-3.9405,-3.9428,-3.947,-3.9468,-3.9505,-3.9475,-3.947,-3.9467,-3.9464,-3.9467,-3.951,-3.9511,-3.9512,-3.9512,0,-3.904,-3.9046,-3.9083,-3.9123,-3.9154,-3.9187,-3.9218,-3.9239,-3.9256,-3.9287,-3.9332,-3.936,-3.9416,-3.9459,-3.9502,-3.9522,-3.952,-3.9522,-3.9532,-3.9528,-3.9519,-3.9523,-3.9419,-3.9519,-3.9518,-3.9518,-3.9517,-3.9517,-3.9094,-3.9126,-3.9158,-3.9199,-3.9224,-3.9254,-3.9286,-3.9305,-3.9343,-3.9389,-3.9395,-3.9443,-3.9476,-3.9534,-3.9556,-3.9594,-3.9584,-3.9599,-3.9603,-3.9606,-3.9607,-3.9515,-3.9603,-3.9602,-3.9602,-3.9602,-3.9602,0,-3.9172,-3.9193,-3.9231,-3.9275,-3.9307,-3.9303,-3.9338,-3.9366,-3.9408,-3.9439,-3.9474,-3.9527,-3.9569,-3.9596,-3.9639,-3.9664,-3.9665,-3.9675,-3.9672,-3.9677,-3.9614,-3.96,-3.9674,-3.9674,-3.9674,-3.9674,-3.9674,-3.9674,-3.9216,-3.9269,-3.928,-3.9345,-3.9366,-3.9413,-3.9433,-3.9461,-3.9485,-3.9543,-3.9579,-3.9596,-3.9625,-3.967,-3.971,-3.9716,-3.9731,-3.9743,-3.9748,-3.9689,-3.9681,-3.9674,-3.9661,-3.9746,-3.9746,-3.9807,-3.9808,-3.9808]},{"header":{"parameterUnit":"m.s-1","parameterCategory":1,"la1":30.2991,"la2":30.254,"lo1":-89.0895,"lo2":-89.0444,"dy":0.0017,"dx":0.0017,"nx":28,"ny":28,"refTime":"2025-01-29T03:00:00:Z","depth":0,"parameterNumber":3,"parameterNumberName":"V-component_of_WINDS"},"data":[0,0,0,0,0,0,0,0,0,0,0,0,0,0,0,0,0,0,0,0,0,0,0,0,0,0,0,0,0,0,0,0,0,0,0,0,0,0,0,0,0,0,0,0,0,0,0,0,0,0,0,0,0,0,0,0,0,0,3.7418,3.7418,0,3.7479,3.748,3.7481,3.7488,3.7487,3.7487,3.7486,3.755,3.7552,3.7554,0,0,0,0,0,0,0,0,0,0,0,0,0,3.7309,3.7311,3.7417,3.7418,3.7419,3.7479,3.748,3.7481,3.7488,3.7487,3.7487,3.7486,3.7549,3.7552,3.7555,0,0,0,0,0,0,0,0,0,0,0,0,0,3.7362,3.7312,3.7417,3.743,3.7432,3.7479,3.748,3.7481,3.7488,3.7487,3.7487,3.7486,3.7548,3.7552,3.7555,3.7594,0,0,3.7565,3.7567,0,0,0,0,0,0,0,0,3.7359,3.7366,3.7427,3.7429,3.7431,3.7475,3.7465,3.7519,3.7489,3.7467,3.7486,3.7485,3.7526,3.7531,3.7545,3.7597,3.76,3.7566,3.7568,3.7569,3.757,0,0,0,0,0,0,0,3.7355,3.7363,3.7442,3.7428,3.7431,3.7434,3.744,3.7475,3.7501,3.7469,3.7469,3.7477,3.7527,3.7541,3.7546,3.7601,3.7566,3.7569,3.7571,3.7572,3.7694,3.7695,0,0,0,0,0,0,3.7349,3.736,3.744,3.7444,3.7392,3.7436,3.7444,3.7462,3.75,3.7505,3.7477,3.7477,3.7536,3.7542,3.7548,3.76,3.7569,3.7572,3.7574,3.7693,3.7694,3.7695,0,0,0,0,0,0,3.7347,3.7356,3.7438,3.7402,3.7413,3.7439,3.746,3.7464,3.7478,3.7507,3.7512,3.7487,3.7536,3.7544,3.7584,3.7602,3.7574,3.7577,3.7691,3.7693,3.7695,3.7702,0,0,0,0,0,0,3.7344,3.7355,3.7369,3.7403,3.7415,3.7471,3.7461,3.7465,3.7484,3.7484,3.7518,3.7522,3.7535,3.7579,3.7587,3.7607,3.758,3.769,3.7692,3.7694,3.77,3.7704,3.7707,0,0,0,0,0,3.734,3.7368,3.737,3.738,3.7433,3.7472,3.7479,3.7493,3.7485,3.7501,3.752,3.7521,3.7599,3.7583,3.7592,3.7613,3.7689,3.7691,3.7694,3.7699,3.7703,3.7707,0,0,0,0,0,0,3.7336,3.7373,3.7375,3.7415,3.744,3.7473,3.7493,3.7497,3.7525,3.7524,3.754,3.7548,3.7589,3.7604,3.7586,3.7656,3.7643,3.7648,3.7644,3.7648,3.7651,3.7647,3.7582,0,0,0,0,0,3.734,3.7367,3.7398,3.7431,3.7443,3.7466,3.7483,3.7493,3.752,3.753,3.7552,3.7579,3.761,3.7629,3.7659,3.7703,3.7712,3.7722,3.7725,3.7728,3.7732,3.7761,3.7766,3.7704,3.7704,3.7704,0,0,3.7347,3.7371,3.7387,3.7431,3.7451,3.7482,3.7475,3.7506,3.7529,3.7535,3.7575,3.7592,3.7624,3.7667,3.7687,3.7681,3.7752,3.7731,3.7733,3.7736,3.7764,3.777,3.7775,3.7706,3.7706,3.7705,0,0,3.7378,3.7398,3.7428,3.745,3.7482,3.7498,3.7505,3.7538,3.755,3.7591,3.7597,3.7625,3.7677,3.77,3.7719,3.7762,3.7766,3.7771,3.7789,3.7817,3.7822,3.7826,3.7845,3.7851,3.7775,3.7775,3.7775,0,3.7384,3.7429,3.7444,3.7476,3.7496,3.7504,3.7537,3.7557,3.7597,3.7612,3.7605,3.7673,3.7694,3.7745,3.7756,3.7769,3.7781,3.7768,3.782,3.7824,3.7829,3.7847,3.7854,3.7776,3.7776,3.7776,3.7776,0,3.7437,3.7468,3.7489,3.7529,3.7552,3.7584,3.7605,3.7627,3.7635,3.7652,3.7695,3.7721,3.7758,3.777,3.7777,3.7823,3.782,3.7816,3.7804,3.7835,3.7853,3.786,3.7777,3.7777,3.7776,3.7776,0,0,3.7465,3.7515,3.7523,3.7543,3.7581,3.7606,3.764,3.7677,3.7696,3.7724,3.7755,3.78,3.7799,3.782,3.783,3.7854,3.7891,3.7848,3.7849,3.7858,3.7948,3.7952,3.796,3.7893,3.7895,3.7896,3.7946,0,3.7502,3.7563,3.7579,3.7631,3.7662,3.7672,3.7702,3.7729,3.7747,3.7777,3.7796,3.7829,3.7823,3.7836,3.786,3.7882,3.791,3.7878,3.7925,3.7926,3.7919,3.7968,3.7972,3.8018,3.7953,3.7954,3.7955,0,3.7552,3.7584,3.7639,3.7677,3.769,3.7717,3.7755,3.7782,3.7815,3.7826,3.7852,3.7861,3.7899,3.7885,3.7939,3.7917,3.7938,3.7951,3.7954,3.796,3.7944,3.7979,3.8033,3.8041,3.7965,3.7964,3.7963,0,3.7571,3.7627,3.7669,3.7685,3.7729,3.7748,3.7767,3.7799,3.7821,3.7854,3.787,3.7906,3.7926,3.7955,3.7975,3.7962,3.803,3.8016,3.8042,3.8042,3.8057,3.8056,3.8118,3.8066,3.8066,3.8066,3.8065,0,3.7612,3.7646,3.7678,3.7704,3.7744,3.7763,3.7803,3.7822,3.7851,3.7883,3.7893,3.7922,3.7945,3.7979,3.7994,3.8039,3.8047,3.806,3.8064,3.806,3.8059,3.8075,3.8073,3.8067,3.8067,3.8067,3.8066,0,3.764,3.7662,3.7709,3.7747,3.7758,3.7786,3.782,3.7847,3.7866,3.7906,3.7916,3.7946,3.7986,3.8009,3.8058,3.8069,3.8121,3.8121,3.811,3.8112,3.8139,3.8137,3.8215,3.8227,3.8164,3.8165,3.8165,0,3.7665,3.7692,3.7735,3.7757,3.7777,3.7812,3.7836,3.7857,3.7881,3.7923,3.7946,3.7986,3.802,3.8085,3.8111,3.8151,3.8155,3.8179,3.816,3.8157,3.8159,3.8158,3.8163,3.8183,3.8183,3.8184,3.8184,0,3.7709,3.772,3.7753,3.7792,3.7821,3.7852,3.7884,3.7901,3.7928,3.7956,3.7998,3.8024,3.8077,3.8119,3.8161,3.8182,3.8189,3.819,3.8199,3.8196,3.819,3.8197,3.8122,3.8188,3.8188,3.8187,3.8187,3.8187,3.7738,3.7764,3.78,3.7838,3.7865,3.7895,3.7923,3.7947,3.7982,3.8027,3.8037,3.8082,3.8118,3.8176,3.8199,3.8236,3.8231,3.8243,3.8247,3.825,3.8253,3.8182,3.8243,3.8243,3.8243,3.8243,3.8243,0,3.7785,3.7809,3.7844,3.7889,3.7921,3.7924,3.796,3.7987,3.8026,3.8059,3.8094,3.8144,3.8186,3.8217,3.826,3.8284,3.8289,3.8295,3.8294,3.83,3.8252,3.8242,3.8291,3.8291,3.8291,3.8291,3.8291,3.8291,3.7813,3.7859,3.7875,3.7935,3.7959,3.8004,3.8025,3.8054,3.8081,3.8137,3.8172,3.8193,3.8226,3.8273,3.8312,3.832,3.8337,3.8344,3.8353,3.8308,3.8303,3.8298,3.8289,3.8346,3.8346,3.8398,3.8399,3.8399]}]]